Simultaneous Nadir Overpasses (SNOs) Predictions

Prediction of SNOs between NOAA-20 and LANDSAT-8 Satellite Orbit:

Table of predicted SNOs for the next 14.0 days since TLE Epoch: 6/11/2022
Index Date (NOAA-20) Time (NOAA-20) Lat,Lon (NOAA-20) SZA (NOAA-20 ) Date (LANDSAT-8) Time (LANDSAT-8) Lat,Lon (LANDSAT-8) SZA (LANDSAT-8 ) Distance(km) Time Diff (sec)
1 06/11/2022 22:49:48 70.12,-166.06 46.93 06/11/2022 22:50:16 70.14,-166.02 46.95 3.36 28
2 06/11/2022 23:40:30 -70.03, 1.38 133.17 06/11/2022 23:39:46 -70.03, 1.45 133.17 2.49 44
3 06/14/2022 14:16:05 -70.60, 141.64 132.72 06/14/2022 14:17:15 -70.51, 142.74 132.85 41.78 70
4 06/14/2022 15:06:41 70.06, -50.21 46.73 06/14/2022 15:06:48 70.08, -50.24 46.74 1.91 7
5 06/14/2022 15:57:23 -69.98, 117.24 133.37 06/14/2022 15:56:18 -69.97, 117.23 133.38 1.16 65
6 06/17/2022 06:32:51 -70.18,-101.92 133.25 06/17/2022 06:33:52 -70.16,-101.89 133.28 2.31 61
7 06/17/2022 07:23:35 70.07, 65.56 46.63 06/17/2022 07:23:19 70.05, 65.60 46.62 2.13 16
8 06/17/2022 08:14:07 -69.45,-126.20 134.02 06/17/2022 08:12:57 -69.51,-127.52 133.91 51.80 70
9 06/19/2022 22:49:44 -70.13, 13.93 133.36 06/19/2022 22:50:23 -70.13, 13.94 133.36 0.40 39
10 06/19/2022 23:40:28 70.02,-178.59 46.54 06/19/2022 23:39:50 70.02,-178.57 46.54 0.95 38
11 06/22/2022 14:16:06 70.81, -38.70 47.37 06/22/2022 14:17:14 70.68, -37.00 47.18 63.91 68
12 06/22/2022 15:06:36 -70.08, 129.78 133.40 06/22/2022 15:06:53 -70.09, 129.76 133.40 1.38 17
13 06/22/2022 15:57:20 69.97, -62.75 46.49 06/22/2022 15:56:20 69.97, -62.75 46.50 0.07 60



Historial Predications of SNOs between NOAA-20 and LANDSAT-8
